DW3310 Weather Reports


Display with metric or nautical units.
time (UTC)temp
F
wind
direction
speed
MPH
gust
MPH
rain 1hr
in
rain 24hr
in
rain mn
in
humidity
%
barometer
mb
20260831033026 61 333 4.0 12.0 0.00 0.09 0.09 1 1018.1
20260831031531 61 327 5.0 15.0 0.00 0.09 0.09 1 1018.0
20260831030015 62 281 7.0 17.0 0.00 0.09 0.09 1 1018.0
20260831024512 62 266 10.0 18.0 0.00 0.09 0.09 1 1018.1
20260831023011 62 281 9.0 14.0 0.00 0.09 0.09 1 1017.8
20260831021502 62 263 10.0 18.0 0.00 0.09 0.09 1 1017.7
20260831020057 62 360 9.0 16.0 0.02 0.09 0.09 1 1017.7
20260831014552 62 256 9.0 17.0 0.09 0.09 0.09 1 1017.4
20260831013049 62 256 12.0 17.0 0.09 0.09 0.09 1 1017.4
20260831011552 63 360 8.0 14.0 0.09 0.09 0.09 1 1017.3
20260831010056 65 288 7.0 13.0 0.06 0.06 0.06 9 1017.2
20260831004535 67 263 8.0 16.0 0.00 0.00 0.00 45 1017.0
20260831003035 67 288 10.0 17.0 0.00 0.00 0.00 45 1016.6
20260831001537 67 302 4.0 8.0 0.00 0.00 0.00 49 1016.3
20260831000033 68 299 3.0 6.0 0.00 0.00 0.00 57 1016.1
20260830234532 68 286 3.0 7.0 0.00 0.00 0.00 58 1015.8
20260830233037 68 265 4.0 7.0 0.00 0.00 0.00 60 1015.6
20260830231529 68 264 3.0 7.0 0.00 0.00 0.00 61 1015.6
20260830230028 68 268 5.0 9.0 0.00 0.00 0.00 61 1015.7
20260830224528 69 244 3.0 7.0 0.00 0.00 0.00 61 1015.8
20260830223026 69 232 3.0 5.0 0.00 0.00 0.00 61 1015.8
20260830221524 69 259 2.0 9.0 0.00 0.00 0.00 62 1015.8
20260830220024 69 269 5.0 9.0 0.00 0.00 0.00 62 1016.0
20260830214523 69 300 3.0 8.0 0.00 0.00 0.00 62 1016.0
20260830213030 69 238 3.0 10.0 0.00 0.00 0.00 62 1016.0
20260830211522 69 264 7.0 11.0 0.00 0.00 0.00 62 1016.1
20260830210022 69 246 6.0 12.0 0.00 0.00 0.00 62 1016.2
20260830204534 70 263 9.0 15.0 0.00 0.00 0.00 62 1016.4
20260830203018 70 255 7.0 13.0 0.00 0.00 0.00 62 1016.6
20260830201514 69 281 9.0 16.0 0.00 0.00 0.00 62 1016.7
20260830200013 69 227 8.0 15.0 0.00 0.00 0.00 62 1016.7
20260830194512 69 284 9.0 16.0 0.00 0.00 0.00 62 1016.7
20260830193026 69 250 10.0 17.0 0.00 0.00 0.00 62 1016.8
20260830191523 69 279 8.0 15.0 0.00 0.00 0.00 62 1016.8
20260830190007 69 248 10.0 24.0 0.00 0.00 0.00 62 1017.2
20260830184506 69 254 10.0 16.0 0.00 0.00 0.00 62 1017.3
20260830183003 69 247 8.0 16.0 0.00 0.00 0.00 62 1017.5
20260830181502 68 247 8.0 17.0 0.00 0.00 0.00 61 1017.8
20260830180005 68 265 10.0 17.0 0.00 0.00 0.00 61 1017.9
20260830174612 67 360 10.0 15.0 0.00 0.00 0.00 58 1017.9
20260830173057 66 263 11.0 24.0 0.00 0.00 0.00 56 1018.3
20260830171557 66 360 12.0 27.0 0.00 0.00 0.00 52 1018.6
20260830170056 66 265 13.0 21.0 0.00 0.00 0.00 47 1018.6
20260830164554 66 276 9.0 22.0 0.00 0.00 0.00 52 1018.4
20260830163052 68 262 8.0 12.0 0.00 0.00 0.00 54 1018.5
20260830161604 68 283 10.0 17.0 0.00 0.00 0.00 62 1018.5
20260830160048 69 242 10.0 18.0 0.00 0.00 0.00 62 1018.7
20260830154546 69 252 9.0 23.0 0.00 0.00 0.00 62 1018.8
20260830153045 70 258 13.0 25.0 0.00 0.00 0.00 62 1018.9
20260830151546 70 245 13.0 22.0 0.00 0.00 0.00 62 1018.8
20260830150109 70 258 10.0 18.0 0.00 0.00 0.00 62 1019.0
20260830144542 69 360 8.0 19.0 0.00 0.00 0.00 62 1019.1
20260830143042 69 287 13.0 19.0 0.00 0.00 0.00 62 1019.1
20260830141534 68 230 9.0 16.0 0.00 0.00 0.00 62 1019.1
20260830140032 67 243 9.0 16.0 0.00 0.00 0.00 63 1019.0
20260830134539 67 246 9.0 16.0 0.00 0.00 0.00 62 1019.1
20260830133030 67 360 8.0 16.0 0.00 0.00 0.00 62 1019.2
20260830131528 67 286 9.0 16.0 0.00 0.00 0.00 62 1019.2
20260830130025 66 252 10.0 18.0 0.00 0.00 0.00 62 1019.5
20260830124524 65 271 8.0 16.0 0.00 0.00 0.00 63 1019.4
20260830123018 64 225 10.0 18.0 0.00 0.00 0.00 63 1019.5
20260830121515 64 235 12.0 18.0 0.00 0.00 0.00 63 1019.6
20260830120020 64 275 9.0 18.0 0.00 0.00 0.00 63 1019.6
20260830114510 64 233 11.0 17.0 0.00 0.00 0.00 63 1019.6
20260830113007 63 270 11.0 18.0 0.00 0.00 0.00 63 1019.7
20260830111504 63 218 9.0 17.0 0.00 0.00 0.00 63 1019.7
20260830110005 63 268 11.0 16.0 0.00 0.00 0.00 63 1019.5
20260830104503 63 252 9.0 16.0 0.00 0.00 0.00 63 1019.5
20260830103100 63 254 10.0 18.0 0.00 0.00 0.00 63 1019.5
20260830101557 63 360 9.0 15.0 0.00 0.00 0.00 63 1019.7
20260830100056 63 261 10.0 16.0 0.00 0.00 0.00 63 1019.7
20260830094555 63 245 10.0 18.0 0.00 0.00 0.00 63 1019.7
20260830093056 63 244 10.0 17.0 0.00 0.00 0.00 63 1019.9
20260830091552 63 281 11.0 17.0 0.00 0.00 0.00 62 1019.9
20260830090059 63 242 9.0 17.0 0.00 0.00 0.00 62 1020.1
20260830084555 63 360 11.0 17.0 0.00 0.00 0.00 63 1020.0
20260830083054 63 294 10.0 18.0 0.00 0.00 0.00 62 1020.1
20260830081547 63 360 11.0 19.0 0.00 0.00 0.00 61 1020.3
20260830080049 63 249 10.0 18.0 0.00 0.00 0.00 62 1020.1
20260830074601 63 284 10.0 17.0 0.00 0.00 0.00 62 1019.9
20260830073044 63 261 10.0 17.0 0.00 0.00 0.00 62 1019.9
20260830071543 63 268 10.0 17.0 0.00 0.00 0.00 62 1019.9
20260830070042 63 280 11.0 19.0 0.00 0.00 0.00 62 1019.9
20260830064541 63 273 9.0 19.0 0.00 0.00 0.00 63 1020.0
20260830063038 63 287 10.0 20.0 0.00 0.00 0.00 63 1020.1
20260830061536 63 264 11.0 21.0 0.00 0.00 0.00 63 1020.2
20260830060034 63 267 11.0 19.0 0.00 0.00 0.00 63 1020.2
20260830054535 63 273 11.0 19.0 0.00 0.00 0.00 63 1020.5
20260830053028 63 232 10.0 18.0 0.00 0.00 0.00 62 1020.5
20260830051527 63 223 12.0 18.0 0.00 0.00 0.00 62 1020.5
20260830050024 64 220 13.0 18.0 0.00 0.00 0.00 61 1020.5
20260830044528 64 259 11.0 19.0 0.00 0.00 0.00 61 1020.6
20260830043021 65 281 12.0 21.0 0.00 0.00 0.00 61 1020.7
20260830041515 65 261 10.0 21.0 0.00 0.00 0.00 61 1020.7
20260830040011 64 257 9.0 19.0 0.00 0.00 0.00 61 1020.7
20260830034511 64 223 11.0 20.0 0.00 0.00 0.00 61 1020.6